Regional Weather Roundup
Issued by NWS Sioux Falls, SD

Home | Current Version | Previous Version | Graphics & Text | Print | Product List | Glossary On
Versions: 1 2 3 4 5 6 7 8 9 10 11 12 13 14 15 16 17 18 19 20 21 22 23 24 25 26 27 28 29 30 31 32 33 34 35 36 37 38 39 40 41 42 43 44 45 46 47 48 49 50
000
ASUS43 KFSD 200702
RWRFSD

WEATHER ROUNDUP FOR SE SOUTH DAKOTA/SW MINNESOTA/NW IOWA
NATIONAL WEATHER SERVICE SIOUX FALLS SD
200 AM CDT FRI OCT 20 2017

NOTE: "FAIR" INDICATES FEW OR NO CLOUDS BELOW 12,000 FEET WITH NO
SIGNIFICANT WEATHER AND OR OBSTRUCTIONS TO VISIBILITY.


SDZ038>040-050-052>070-200800-
SOUTHEAST SOUTH DAKOTA

CITY           SKY/WX    TMP DP  RH WIND       PRES   REMARKS
BROOKINGS      FAIR      56  50  80 S12       29.84S
CHAMBERLAIN    PTCLDY    67  48  50 S12G17    29.74S
HURON          CLEAR     57  49  74 S15G24    29.75F
MADISON        FAIR      57  52  82 S9        29.85S
MITCHELL       PTCLDY    60  50  69 S14       29.79F
SIOUX FALLS    FAIR      62  51  67 S13       29.86S
WINNER         FAIR      67  45  45 S24G31    29.73F
YANKTON        FAIR      55  47  74 S7        29.86S
$$

MNZ071-072-080-081-089-090-097-098-200800-
SOUTHWEST MINNESOTA

CITY           SKY/WX    TMP DP  RH WIND       PRES   REMARKS
FAIRMONT       FAIR      55  50  83 S9        29.93S
JACKSON        FAIR      55  50  82 S10       29.92S
MARSHALL       FAIR      64  51  62 SW21G29   29.81F
MONTEVIDEO     FAIR      54  48  82 S6        29.82S
PIPESTONE      FAIR      61  48  63 S15       29.87S
REDWOOD FALLS  FAIR      54  48  80 S9        29.86S
TRACY          FAIR      64  52  67 SW18G24   29.85S
WORTHINGTON    FAIR      61  50  67 S15G21    29.91S
$$

IAZ001>003-012>014-020>022-031-032-NEZ013-014-SDZ071-200800-
NORTHWEST IOWA

CITY           SKY/WX    TMP DP  RH WIND       PRES   REMARKS
CHEROKEE       FAIR      58  52  81 S9        29.94S
DENISON        FAIR      59  50  72 S7        29.99R
ESTHERVILLE    FAIR      51  50  96 S10       29.93S
LE MARS        FAIR      57  50  77 MISG      29.91S
ORANGE CITY    FAIR      59  54  82 S8        29.92S
SHELDON        FAIR      59  50  72 S10G17    29.90S
SIOUX CITY     FAIR      52  50  93 SE10      29.92S
SPENCER        FAIR      52  49  89 S7        29.94S
STORM LAKE     FAIR      57  50  77 S10       29.96R
$$

ABBREVIATIONS USED IN REMARKS
   TC - TEMPERATURE IN CELSIUS
  WCI - WIND CHILL INDEX
   HX - HEAT INDEX
  VSB - VISIBILITY





USA.gov is the U.S. government's official web portal to all federal, state and local government web resources and services.